Regional Weather Roundup
Issued by NWS Boston, MA

Home | Current Version | Previous Version | Text Only | Print | Product List | Glossary On
Versions: 1 2 3 4 5 6 7 8 9 10 11 12 13 14 15 16 17 18 19 20 21 22 23 24 25 26 27 28 29 30 31 32 33 34 35 36 37 38 39 40 41 42 43 44 45 46 47 48
000
ASUS41 KBOX 041910
RWRBOX

REGIONAL WEATHER ROUNDUP
NATIONAL WEATHER SERVICE TAUNTON MA
300 PM EDT SAT JUL 04 2015

NOTE:  "FAIR" INDICATES FEW OR NO CLOUDS BELOW 12,000 FEET WITH NO
SIGNIFICANT WEATHER AND/OR OBSTRUCTIONS TO VISIBILITY.  THE FOLLOWING
OBSERVATION LOCATIONS DO NOT REPORT PRESENT WEATHER...PROVINCETOWN...
SMITHFIELD...BLOCK ISLAND...KEENE...AND OXFORD.

MAZALL-042000-
EASTERN MASSACHUSETTS

CITY           SKY/WX    TMP DP  RH WIND       PRES   REMARKS
BOSTON         CLOUDY    68  58  70 E7        29.98S
BEVERLY        CLOUDY    72  56  57 SE6       29.98S
LAWRENCE       LGT RAIN  71  57  61 NW5       30.01R
BEDFORD        CLOUDY    72  59  63 NW8       29.98R
BLUE HILL        N/A     72  56  57 VRB3      29.99R
NORWOOD        CLOUDY    74  55  51 SE3       29.97S
MARSHFIELD     CLOUDY    70  57  64 SE5       29.99F
PLYMOUTH       CLOUDY    72  53  51 E7        29.98S
TAUNTON        CLOUDY    76  51  41 MISG      29.96F
NEW BEDFORD    CLOUDY    74  51  44 NE6       29.96S
$$

MAZALL-042000-
CAPE COD AND THE ISLANDS

CITY           SKY/WX    TMP DP  RH WIND       PRES   REMARKS
FALMOUTH       CLOUDY    72  52  49 E6        29.97F
HYANNIS        CLOUDY    72  48  42 NE7       29.96S
CHATHAM        CLOUDY    66  52  60 NE6       29.98F
PROVINCETOWN   CLOUDY    75  16  10 SE6       29.98F
NANTUCKET      CLOUDY    67  52  58 NE10      29.95S
MARTHAS VNYRD  CLOUDY    69  55  60 NE12      29.96S
$$

MAZALL-042000-
CENTRAL AND WESTERN MASSACHUSETTS

CITY           SKY/WX    TMP DP  RH WIND       PRES   REMARKS
WORCESTER      LGT RAIN  68  57  68 NW5       30.02R
FITCHBURG      LGT RAIN  67  58  72 NW6       30.02R
ORANGE         LGT RAIN  63  59  87 CALM      30.01S
SPRINGFIELD    LGT RAIN  66  60  82 N8        29.98F
WESTFIELD      LGT RAIN  66  62  87 NE5       29.99F
NORTH ADAMS    LGT RAIN  65  60  84 CALM      29.99F
PITTSFIELD     CLOUDY    63  59  87 E3        29.99F
$$

RIZALL-042000-
RHODE ISLAND

CITY           SKY/WX    TMP DP  RH WIND       PRES   REMARKS
PROVIDENCE     CLOUDY    74  51  44 CALM      29.98S
NEWPORT        CLOUDY    71  55  56 E6        29.97S
BLOCK ISLAND   PTSUNNY   68  55  64 NE6       29.97S
SMITHFIELD     CLOUDY    72  54  53 CALM      29.99S
WESTERLY       CLOUDY    73  49  42 E9        29.98S
$$

CTZALL-042000-
CONNECTICUT

CITY           SKY/WX    TMP DP  RH WIND       PRES   REMARKS
BRADLEY INTL   LGT RAIN  69  61  75 N8        29.98F
HARTFORD       LGT RAIN  70  60  70 N8        29.97F
BRIDGEPORT     CLOUDY    72  63  73 E7        29.95F
DANBURY        CLOUDY    70  56  61 E9        29.97F
GROTON         CLOUDY    71  54  54 E9        29.96S
NEW HAVEN      CLOUDY    74  61  63 NE9       29.96F
CHESTER        NOT AVBL
MERIDEN        CLOUDY    72  55  55 N6        29.97F
WILLIMANTIC    CLOUDY    73  56  54 N6        29.98S
OXFORD         CLOUDY    68  52  56 NE8       29.99F
$$

MEZ002-015-021-024-NHZ003-005-008-011-012-014-VTZ005-008-042000-
NORTHERN NEW ENGLAND

CITY           SKY/WX    TMP DP  RH WIND       PRES   REMARKS
PORTLAND ME    CLOUDY    67  59  75 SE6       29.98S
BANGOR ME      CLOUDY    75  53  46 S12       29.97S
CONCORD NH     LGT RAIN  67  61  81 W5        30.00S
MANCHESTER NH  LGT RAIN  69  63  81 NW5       29.98S
NASHUA NH      LGT RAIN  70  64  81 N8        30.00S
PORTSMOUTH NH  CLOUDY    71  61  70 W3        29.98R
JAFFREY NH     LGT RAIN  63  59  87 CALM      30.03S FOG
KEENE NH       CLOUDY    64  57  77 CALM      30.02S
BURLINGTON VT  CLOUDY    73  58  59 S12       29.93S
MT. WASHINGTON CLOUDY    46  41  81 W14         N/A
$$

NYZ052-076-042000-
EASTERN NEW YORK

CITY           SKY/WX    TMP DP  RH WIND       PRES   REMARKS
ALBANY         CLOUDY    67  62  84 S6        29.98F
NEW YORK CITY  LGT RAIN  71  61  70 NE7       29.95F
$$

ANZALL-042000-
MARINE OBSERVATIONS

STATION/POSITION TIME  TEMP    WIND        PRES    VSBY  WAVE
                       AIR SEA DIR/SP/G                  HT/PER
                 (UTC) (F)     (DEG/KT/KT) (MB)    (MI)  (FT/S)
BOSTON BUOY      1850   63 63  130/  8/ 10 1015.3S         1/ 9
BUZZARDS BAY     1800           80/  8/  8 1015.6R
NANTUCKET SOUND  1850   63 69   50/ 10/ 10 1014.4S         1/ 4
MASS BAY-STELLWA 1804   63 60  130/  6/  8 1014.4S  1 7/8  2/11
ISLE OF SHOALS   1900   66     190/  4/  4 1015.1R
S OF BLOCK IS    1808      67                N/A           4/ 8
$$

......................KEY.........................
  SKY/WX - SKY CONDITION/PRESENT WEATHER
  TMP    - TEMPERATURE IN FAHRENHEIT
  DWPT   - DEWPOINT IN FAHRENHEIT
  RH     - RELATIVE HUMIDITY IN PERCENT
  WIND   - DIRECTION AND SPEED IN MPH
  PRES   - MEAN SEA LEVEL PRESSURE IN INCHES OF HG
  WCI    - WIND CHILL INDEX
  VSB    - VISIBILITY IN MILES
  HX     - HEAT INDEX
  TC     - TEMPERATURE IN CELSIUS
  VRB    - VARIABLE WIND DIRECTION
  N/A    - NOT AVAILABLE


USA.gov is the U.S. government's official web portal to all federal, state and local government web resources and services.